STARLINK-31792, 60132

Orbit data source: Space-Track

STARLINK-31792, 60132 is a payload satellite owned by SpaceX/Seattle (US) in LEO that was launched on Mon, 24 Jun 2024 UTC via an FALCON 9 launch vehicle from the Air Force Western Test Range (AFWTR). Payload-class satellites include a variety of spacecraft equipped with specific instruments for various scientific and technological missions. These include communications satellites like Starlink; space stations such as the ISS; scientific satellites like the Hubble; Earth observation satellites from companies like Planet Labs, Umbra, and HawkEye 360; GPS; miniature CubeSats for education and research; and military/defense satellites.

Loading next visibility...
Identifier
60132, 2024-118V
Orbit
LEO
Country
Flag of USUS
Related business
Manufacturer
SpaceX/Seattle
Mission
Operational Commercial Communications
Bus & Motor
STARLINK V2M, Unknown motor
Mass
730 kg wet, ~700 kg dry
Launch date (UTC)
2024-06-24 (1 year ago)
Launch vehicle
FALCON 9
Launch site
Air Force Western Test Range (AFWTR)
Object type
Payload
Rocket body
Debris
Shape & HBR
Box + 2 Pan, 14.5 m
Radar Cross Section
33.884 m², Large (>1 m²)

Expand to show TLE details & history
Last TLE update: 1 day ago

TLE from 1 day ago
0 STARLINK-31792
1 60132U 24118V   25259.98068428 -.00001417  00000-0 -35757-4 0  9992
2 60132  53.1601 111.1966 0001314  97.1051 263.0099 15.30180600 69139
Epoch: 2025-09-16T23:32Z
TLE epoch observation values (Epoch: 2025-09-16T23:32:11.121Z)
Latitude
-0.00005°
Longitude
121.98702°
Altitude
476.282 km
Speed
7.629 km/s
True Right ascension
07h 24m 47s
True Declination
0° 00' 00"
Sunlit
Object was in daylight at epoch
Visualization orbit readout
Latitude
Unknown
Longitude
Unknown
Altitude
Unknown
Speed
Unknown
Apparent Right ascension
Unknown
Apparent Declination
Unknown
Sunlit
N/A
Visualization observer readout
Local Sidereal Time
16:08:09
Azimuth
Unknown
Elevation
Unknown
Doppler factor
Unknown
Orbital elements
Apogee altitude
476.43 km
Perigee altitude
474.629 km
Semi-major axis
6,853.666 km
Eccentricity
0.00013
Inclination
53.1601°
RAAN
111.1966°
Arg. of periapsis
97.1051°
True anomaly
262.99495°
Mean anomaly
263.0099°
Eccentric anomaly
263.00243°
Mean motion
3.82524 °/min
Orbital period
94.11 mins
BSTAR
-0.000035757
Loading maneuver chart data...
Computing Atmospheric mass density...
Loading historical data...
Loading historical data...
Loading historical data...
Loading historical data...
Loading historical data...
Loading historical data...
Loading historical data...

Documentation

Showing up to 5 results
|